| time (UTC) | temp F | wind direction | speed MPH | gust MPH | rain 1hr in | rain 24hr in | rain mn in | humidity % | barometer mb |
| 20260508171526 | 71 | 355 | 1.0 | 3.0 | 0.00 | 0.00 | 0.00 | 32 | 1006.8 |
| 20260508170024 | 70 | 16 | 1.0 | 4.0 | 0.00 | 0.00 | 0.00 | 33 | 1006.8 |
| 20260508164520 | 69 | 267 | 0.0 | 0.0 | 0.00 | 0.00 | 0.00 | 33 | 1006.8 |
| 20260508163018 | 67 | 286 | 0.0 | 2.0 | 0.00 | 0.00 | 0.00 | 36 | 1006.8 |
| 20260508161523 | 66 | 197 | 0.0 | 2.0 | 0.00 | 0.00 | 0.00 | 40 | 1006.9 |
| 20260508160010 | 66 | 168 | 0.0 | 2.0 | 0.00 | 0.00 | 0.00 | 41 | 1007.1 |
| 20260508154509 | 65 | 187 | 0.0 | 2.0 | 0.00 | 0.00 | 0.00 | 40 | 1007.1 |
| 20260508153012 | 63 | 35 | 0.0 | 1.0 | 0.00 | 0.00 | 0.00 | 41 | 1007.1 |
| 20260508151600 | 62 | 35 | 0.0 | 1.0 | 0.00 | 0.00 | 0.00 | 42 | 1007.2 |
| 20260508150059 | 60 | 64 | 0.0 | 3.0 | 0.00 | 0.00 | 0.00 | 43 | 1007.1 |
| 20260508144557 | 58 | 39 | 0.0 | 5.0 | 0.00 | 0.00 | 0.00 | 45 | 1007.1 |
| 20260508143115 | 56 | 98 | 0.0 | 3.0 | 0.00 | 0.00 | 0.00 | 48 | 1007.2 |
| 20260508141559 | 54 | 104 | 0.0 | 3.0 | 0.00 | 0.00 | 0.00 | 50 | 1007.1 |
| 20260508140107 | 52 | 101 | 0.0 | 4.0 | 0.00 | 0.00 | 0.00 | 52 | 1007.0 |
| 20260508134553 | 51 | 137 | 0.0 | 2.0 | 0.00 | 0.00 | 0.00 | 53 | 1006.9 |
| 20260508133051 | 51 | 125 | 0.0 | 7.0 | 0.00 | 0.00 | 0.00 | 54 | 1006.7 |
| 20260508131550 | 50 | 110 | 0.0 | 7.0 | 0.00 | 0.00 | 0.00 | 55 | 1006.7 |
| 20260508130047 | 49 | 90 | 0.0 | 5.0 | 0.00 | 0.00 | 0.00 | 55 | 1006.6 |
| 20260508124546 | 50 | 160 | 1.0 | 7.0 | 0.00 | 0.00 | 0.00 | 54 | 1006.5 |
| 20260508123046 | 50 | 48 | 0.0 | 5.0 | 0.00 | 0.00 | 0.00 | 53 | 1006.2 |
| 20260508121539 | 50 | 100 | 0.0 | 2.0 | 0.00 | 0.00 | 0.00 | 53 | 1006.0 |
| 20260508120036 | 51 | 124 | 0.0 | 2.0 | 0.00 | 0.00 | 0.00 | 52 | 1005.9 |
| 20260508114534 | 51 | 91 | 0.0 | 3.0 | 0.00 | 0.00 | 0.00 | 51 | 1005.9 |
| 20260508113032 | 52 | 67 | 0.0 | 4.0 | 0.00 | 0.00 | 0.00 | 50 | 1005.9 |
| 20260508111531 | 52 | 103 | 1.0 | 4.0 | 0.00 | 0.00 | 0.00 | 50 | 1005.9 |
| 20260508110033 | 52 | 108 | 1.0 | 4.0 | 0.00 | 0.00 | 0.00 | 49 | 1005.8 |
| 20260508104626 | 53 | 130 | 1.0 | 4.0 | 0.00 | 0.00 | 0.00 | 48 | 1005.7 |
| 20260508103038 | 53 | 92 | 0.0 | 5.0 | 0.00 | 0.00 | 0.00 | 48 | 1005.6 |
| 20260508101523 | 53 | 96 | 1.0 | 5.0 | 0.00 | 0.00 | 0.00 | 48 | 1005.5 |
| 20260508100022 | 53 | 54 | 1.0 | 4.0 | 0.00 | 0.00 | 0.00 | 47 | 1005.5 |
| 20260508094520 | 54 | 88 | 0.0 | 3.0 | 0.00 | 0.00 | 0.00 | 47 | 1005.5 |
| 20260508093020 | 54 | 116 | 0.0 | 5.0 | 0.00 | 0.00 | 0.00 | 46 | 1005.3 |
| 20260508091518 | 54 | 113 | 0.0 | 5.0 | 0.00 | 0.00 | 0.00 | 46 | 1005.4 |
| 20260508090016 | 55 | 225 | 0.0 | 7.0 | 0.00 | 0.00 | 0.00 | 45 | 1005.5 |
| 20260508084513 | 55 | 54 | 0.0 | 4.0 | 0.00 | 0.00 | 0.00 | 44 | 1005.4 |
| 20260508083010 | 56 | 63 | 0.0 | 5.0 | 0.00 | 0.00 | 0.00 | 43 | 1005.2 |
| 20260508081615 | 56 | 71 | 0.0 | 5.0 | 0.00 | 0.00 | 0.00 | 43 | 1005.2 |
| 20260508080007 | 56 | 96 | 0.0 | 2.0 | 0.00 | 0.00 | 0.00 | 43 | 1005.4 |
| 20260508074506 | 57 | 116 | 0.0 | 3.0 | 0.00 | 0.00 | 0.00 | 43 | 1005.5 |
| 20260508073005 | 57 | 107 | 0.0 | 3.0 | 0.00 | 0.00 | 0.00 | 43 | 1005.6 |
| 20260508071504 | 57 | 103 | 1.0 | 5.0 | 0.00 | 0.00 | 0.00 | 43 | 1005.7 |
| 20260508070002 | 57 | 116 | 0.0 | 2.0 | 0.00 | 0.00 | 0.00 | 42 | 1005.6 |
| 20260508064558 | 58 | 66 | 0.0 | 1.0 | 0.00 | 0.00 | 0.00 | 41 | 1005.5 |
| 20260508063057 | 59 | 360 | 0.0 | 2.0 | 0.00 | 0.00 | 0.00 | 40 | 1005.3 |
| 20260508061551 | 60 | 127 | 0.0 | 3.0 | 0.00 | 0.00 | 0.00 | 38 | 1005.1 |
| 20260508054636 | 60 | 108 | 0.0 | 3.0 | 0.00 | 0.00 | 0.00 | 38 | 1005.1 |
| 20260508053052 | 60 | 110 | 0.0 | 3.0 | 0.00 | 0.00 | 0.00 | 38 | 1005.1 |
| 20260508051548 | 60 | 98 | 0.0 | 3.0 | 0.00 | 0.00 | 0.00 | 39 | 1005.1 |
| 20260508050048 | 59 | 90 | 0.0 | 4.0 | 0.00 | 0.00 | 0.00 | 40 | 1005.0 |
| 20260508044547 | 58 | 116 | 0.0 | 2.0 | 0.00 | 0.00 | 0.00 | 42 | 1005.1 |
| 20260508043052 | 58 | 190 | 0.0 | 1.0 | 0.00 | 0.00 | 0.00 | 43 | 1005.2 |
| 20260508041545 | 59 | 190 | 0.0 | 0.0 | 0.00 | 0.00 | 0.00 | 44 | 1005.2 |
| 20260508040045 | 60 | 190 | 0.0 | 0.0 | 0.00 | 0.00 | 0.00 | 42 | 1005.2 |
| 20260508034550 | 61 | 190 | 0.0 | 0.0 | 0.00 | 0.00 | 0.00 | 40 | 1004.9 |
| 20260508033043 | 63 | 190 | 0.0 | 0.0 | 0.00 | 0.00 | 0.00 | 40 | 1004.9 |
| 20260508031544 | 64 | 190 | 0.0 | 0.0 | 0.00 | 0.00 | 0.00 | 37 | 1004.9 |
| 20260508030045 | 66 | 190 | 0.0 | 0.0 | 0.00 | 0.00 | 0.00 | 35 | 1004.8 |
| 20260508024547 | 67 | 190 | 0.0 | 0.0 | 0.00 | 0.00 | 0.00 | 32 | 1004.6 |
| 20260508023041 | 69 | 190 | 0.0 | 0.0 | 0.00 | 0.00 | 0.00 | 29 | 1004.5 |
| 20260508021540 | 71 | 190 | 0.0 | 0.0 | 0.00 | 0.00 | 0.00 | 27 | 1004.5 |
| 20260508020040 | 72 | 190 | 0.0 | 1.0 | 0.00 | 0.00 | 0.00 | 25 | 1004.5 |
| 20260508014540 | 73 | 220 | 0.0 | 1.0 | 0.00 | 0.00 | 0.00 | 24 | 1004.6 |
| 20260508013035 | 73 | 350 | 0.0 | 1.0 | 0.00 | 0.00 | 0.00 | 23 | 1004.8 |
| 20260508011535 | 74 | 19 | 1.0 | 3.0 | 0.00 | 0.00 | 0.00 | 22 | 1004.9 |
| 20260508010045 | 75 | 299 | 0.0 | 2.0 | 0.00 | 0.00 | 0.00 | 22 | 1005.0 |
| 20260508004533 | 76 | 328 | 0.0 | 2.0 | 0.00 | 0.00 | 0.00 | 21 | 1005.0 |
| 20260508003031 | 78 | 330 | 0.0 | 3.0 | 0.00 | 0.00 | 0.00 | 20 | 1005.2 |
| 20260508001530 | 78 | 214 | 0.0 | 3.0 | 0.00 | 0.00 | 0.00 | 22 | 1005.5 |
| 20260508000025 | 77 | 328 | 1.0 | 6.0 | 0.00 | 0.00 | 0.00 | 21 | 1005.7 |
| 20260507234524 | 77 | 331 | 2.0 | 6.0 | 0.00 | 0.00 | 0.00 | 21 | 1005.7 |
| 20260507233022 | 77 | 360 | 2.0 | 8.0 | 0.00 | 0.00 | 0.00 | 22 | 1005.8 |
| 20260507231522 | 77 | 274 | 1.0 | 7.0 | 0.00 | 0.00 | 0.00 | 20 | 1006.0 |
| 20260507230025 | 77 | 62 | 1.0 | 8.0 | 0.00 | 0.00 | 0.00 | 21 | 1006.0 |
| 20260507224518 | 77 | 289 | 1.0 | 8.0 | 0.00 | 0.00 | 0.00 | 22 | 1006.0 |
| 20260507223015 | 77 | 331 | 1.0 | 4.0 | 0.00 | 0.00 | 0.00 | 22 | 1006.3 |
| 20260507221512 | 77 | 287 | 3.0 | 9.0 | 0.00 | 0.00 | 0.00 | 22 | 1006.5 |
| 20260507220009 | 79 | 291 | 2.0 | 6.0 | 0.00 | 0.00 | 0.00 | 20 | 1006.9 |
| 20260507214507 | 78 | 222 | 1.0 | 6.0 | 0.00 | 0.00 | 0.00 | 21 | 1007.0 |
| 20260507213005 | 78 | 196 | 2.0 | 6.0 | 0.00 | 0.00 | 0.00 | 21 | 1007.4 |
| 20260507211604 | 77 | 295 | 0.0 | 5.0 | 0.00 | 0.00 | 0.00 | 21 | 1007.7 |
| 20260507210103 | 77 | 316 | 1.0 | 4.0 | 0.00 | 0.00 | 0.00 | 23 | 1008.0 |
| 20260507204556 | 77 | 217 | 0.0 | 4.0 | 0.00 | 0.00 | 0.00 | 23 | 1008.3 |
| 20260507203057 | 76 | 4 | 1.0 | 4.0 | 0.00 | 0.00 | 0.00 | 20 | 1008.6 |
| 20260507201549 | 75 | 313 | 0.0 | 3.0 | 0.00 | 0.00 | 0.00 | 21 | 1008.8 |
| 20260507200050 | 74 | 305 | 1.0 | 5.0 | 0.00 | 0.00 | 0.00 | 24 | 1009.0 |
| 20260507194548 | 75 | 199 | 0.0 | 7.0 | 0.00 | 0.00 | 0.00 | 22 | 1009.1 |
| 20260507193042 | 74 | 197 | 2.0 | 8.0 | 0.00 | 0.00 | 0.00 | 25 | 1009.4 |
| 20260507191540 | 73 | 315 | 1.0 | 5.0 | 0.00 | 0.00 | 0.00 | 21 | 1009.6 |
| 20260507190039 | 74 | 341 | 0.0 | 5.0 | 0.00 | 0.00 | 0.00 | 27 | 1010.0 |
| 20260507184535 | 72 | 193 | 1.0 | 3.0 | 0.00 | 0.00 | 0.00 | 22 | 1010.3 |
| 20260507183042 | 71 | 135 | 0.0 | 2.0 | 0.00 | 0.00 | 0.00 | 26 | 1010.7 |
| 20260507181530 | 69 | 227 | 0.0 | 4.0 | 0.00 | 0.00 | 0.00 | 27 | 1011.0 |
| 20260507180031 | 69 | 49 | 0.0 | 3.0 | 0.00 | 0.00 | 0.00 | 26 | 1011.2 |
| 20260507174520 | 67 | 24 | 0.0 | 2.0 | 0.00 | 0.00 | 0.00 | 28 | 1011.5 |
| 20260507173018 | 67 | 326 | 0.0 | 4.0 | 0.00 | 0.00 | 0.00 | 27 | 1011.8 |